Time,TemperatureF,DewpointF,PressureIn,WindDirection,WindDirectionDegrees,WindSpeedMPH,WindSpeedGustMPH,Humidity,HourlyPrecipIn,Conditions,Clouds,dailyrainin,SoftwareType,DateUTC
2013-11-20 00:10:00,40.3,39.0,29.87,WSW,245,0.0,-999.0,95,-99.99,,,0.12,weatherlink.com 1.10,2013-11-20 08:10:00,
2013-11-20 00:25:00,40.4,39.0,29.86,WSW,245,0.0,-999.0,95,-99.99,,,0.01,weatherlink.com 1.10,2013-11-20 08:25:00,
2013-11-20 00:40:00,40.3,39.0,29.86,WSW,245,0.0,-999.0,95,-99.99,,,0.01,weatherlink.com 1.10,2013-11-20 08:40:00,
2013-11-20 00:55:00,40.2,39.0,29.85,WSW,245,0.0,-999.0,95,-99.99,,,0.02,weatherlink.com 1.10,2013-11-20 08:55:00,
2013-11-20 01:10:00,40.1,39.0,29.85,WSW,245,0.0,-999.0,96,-99.99,,,0.03,weatherlink.com 1.10,2013-11-20 09:10:00,
2013-11-20 01:25:00,40.0,39.0,29.85,WSW,245,0.0,-999.0,95,-99.99,,,0.03,weatherlink.com 1.10,2013-11-20 09:25:00,
2013-11-20 01:40:00,39.8,39.0,29.84,WSW,245,0.0,-999.0,95,-99.99,,,0.03,weatherlink.com 1.10,2013-11-20 09:40:00,
2013-11-20 01:55:00,39.8,39.0,29.84,WSW,245,0.0,-999.0,96,-99.99,,,0.04,weatherlink.com 1.10,2013-11-20 09:55:00,
2013-11-20 02:10:00,39.5,38.0,29.84,WSW,245,0.0,-999.0,95,-99.99,,,0.04,weatherlink.com 1.10,2013-11-20 10:10:00,
2013-11-20 02:25:00,39.2,38.0,29.84,WSW,245,0.0,-999.0,95,-99.99,,,0.04,weatherlink.com 1.10,2013-11-20 10:25:00,
2013-11-20 02:40:00,38.8,38.0,29.84,WSW,245,0.0,-999.0,95,-99.99,,,0.04,weatherlink.com 1.10,2013-11-20 10:40:00,
2013-11-20 02:55:00,38.4,37.0,29.84,WSW,245,0.0,-999.0,95,-99.99,,,0.04,weatherlink.com 1.10,2013-11-20 10:55:00,
2013-11-20 03:11:00,38.2,37.0,29.82,WSW,245,0.0,-999.0,95,-99.99,,,0.05,weatherlink.com 1.10,2013-11-20 11:11:00,
2013-11-20 03:25:00,38.2,37.0,29.82,WSW,245,0.0,-999.0,96,-99.99,,,0.05,weatherlink.com 1.10,2013-11-20 11:25:00,
2013-11-20 03:40:00,38.3,37.0,29.82,WSW,245,0.0,-999.0,96,-99.99,,,0.05,weatherlink.com 1.10,2013-11-20 11:40:00,
2013-11-20 03:55:00,38.4,37.0,29.82,WSW,245,0.0,-999.0,96,-99.99,,,0.05,weatherlink.com 1.10,2013-11-20 11:55:00,
2013-11-20 04:10:00,38.2,37.0,29.82,WSW,245,0.0,-999.0,96,-99.99,,,0.06,weatherlink.com 1.10,2013-11-20 12:10:00,
2013-11-20 04:25:00,38.2,37.0,29.82,WSW,245,0.0,-999.0,96,-99.99,,,0.06,weatherlink.com 1.10,2013-11-20 12:25:00,
2013-11-20 04:40:00,38.1,37.0,29.82,WSW,245,0.0,-999.0,96,-99.99,,,0.06,weatherlink.com 1.10,2013-11-20 12:40:00,
2013-11-20 04:55:00,38.1,37.0,29.82,WSW,245,0.0,-999.0,96,-99.99,,,0.06,weatherlink.com 1.10,2013-11-20 12:55:00,
2013-11-20 05:10:00,38.0,37.0,29.83,WSW,245,0.0,-999.0,96,-99.99,,,0.06,weatherlink.com 1.10,2013-11-20 13:10:00,
2013-11-20 05:25:00,37.8,37.0,29.82,WSW,245,0.0,-999.0,96,-99.99,,,0.06,weatherlink.com 1.10,2013-11-20 13:25:00,
2013-11-20 05:40:00,37.4,36.0,29.83,WSW,245,0.0,-999.0,96,-99.99,,,0.06,weatherlink.com 1.10,2013-11-20 13:40:00,
2013-11-20 05:55:00,37.4,36.0,29.83,WSW,245,0.0,-999.0,96,-99.99,,,0.06,weatherlink.com 1.10,2013-11-20 13:55:00,
2013-11-20 06:10:00,37.4,36.0,29.83,WSW,245,0.0,-999.0,96,-99.99,,,0.06,weatherlink.com 1.10,2013-11-20 14:10:00,
2013-11-20 06:25:00,37.1,36.0,29.83,WSW,245,0.0,-999.0,96,-99.99,,,0.06,weatherlink.com 1.10,2013-11-20 14:25:00,
2013-11-20 06:40:00,36.9,36.0,29.83,WSW,245,0.0,-999.0,96,-99.99,,,0.06,weatherlink.com 1.10,2013-11-20 14:40:00,
2013-11-20 06:55:00,36.5,36.0,29.84,WSW,245,0.0,-999.0,96,-99.99,,,0.06,weatherlink.com 1.10,2013-11-20 14:55:00,
2013-11-20 07:11:00,36.5,36.0,29.84,WSW,245,0.0,-999.0,96,-99.99,,,0.07,weatherlink.com 1.10,2013-11-20 15:11:00,
2013-11-20 07:25:00,37.0,36.0,29.84,WSW,245,0.0,-999.0,97,-99.99,,,0.07,weatherlink.com 1.10,2013-11-20 15:25:00,
2013-11-20 07:40:00,37.4,37.0,29.85,WSW,246,0.0,-999.0,97,-99.99,,,0.07,weatherlink.com 1.10,2013-11-20 15:40:00,
2013-11-20 07:55:00,37.6,37.0,29.84,WSW,246,0.0,-999.0,97,-99.99,,,0.07,weatherlink.com 1.10,2013-11-20 15:55:00,
2013-11-20 08:10:00,37.9,37.0,29.84,WSW,246,0.0,-999.0,97,-99.99,,,0.07,weatherlink.com 1.10,2013-11-20 16:10:00,
2013-11-20 08:25:00,38.5,38.0,29.84,WSW,246,0.0,-999.0,97,-99.99,,,0.07,weatherlink.com 1.10,2013-11-20 16:25:00,
2013-11-20 08:40:00,38.8,38.0,29.84,WSW,246,0.0,-999.0,97,-99.99,,,0.07,weatherlink.com 1.10,2013-11-20 16:40:00,
2013-11-20 08:55:00,39.2,39.0,29.84,WSW,246,0.0,-999.0,97,-99.99,,,0.07,weatherlink.com 1.10,2013-11-20 16:55:00,
2013-11-20 09:10:00,39.9,39.0,29.84,WSW,246,0.0,-999.0,97,-99.99,,,0.07,weatherlink.com 1.10,2013-11-20 17:10:00,
2013-11-20 09:25:00,40.5,40.0,29.85,WSW,246,0.0,-999.0,97,-99.99,,,0.07,weatherlink.com 1.10,2013-11-20 17:25:00,
2013-11-20 09:40:00,41.4,41.0,29.85,WSW,246,0.0,-999.0,97,-99.99,,,0.07,weatherlink.com 1.10,2013-11-20 17:40:00,
2013-11-20 09:55:00,42.1,42.0,29.84,WSW,246,1.0,-999.0,98,-99.99,,,0.07,weatherlink.com 1.10,2013-11-20 17:55:00,
2013-11-20 10:10:00,42.6,42.0,29.84,WSW,246,0.0,-999.0,97,-99.99,,,0.07,weatherlink.com 1.10,2013-11-20 18:10:00,
2013-11-20 10:25:00,43.2,42.0,29.84,WSW,246,0.0,-999.0,97,-99.99,,,0.07,weatherlink.com 1.10,2013-11-20 18:25:00,
2013-11-20 10:40:00,43.7,43.0,29.84,WSW,246,0.0,-999.0,97,-99.99,,,0.07,weatherlink.com 1.10,2013-11-20 18:40:00,
2013-11-20 10:55:00,44.8,44.0,29.83,WSW,246,0.0,-999.0,96,-99.99,,,0.07,weatherlink.com 1.10,2013-11-20 18:55:00,
2013-11-20 11:10:00,45.2,44.0,29.81,WSW,246,0.0,-999.0,94,-99.99,,,0.07,weatherlink.com 1.10,2013-11-20 19:10:00,
2013-11-20 11:25:00,45.7,44.0,29.80,WSW,246,0.0,-999.0,94,-99.99,,,0.07,weatherlink.com 1.10,2013-11-20 19:25:00,
2013-11-20 11:40:00,46.2,44.0,29.80,WSW,246,0.0,-999.0,90,-99.99,,,0.07,weatherlink.com 1.10,2013-11-20 19:40:00,
2013-11-20 11:55:00,46.4,44.0,29.80,West,269,0.0,-999.0,91,-99.99,,,0.07,weatherlink.com 1.10,2013-11-20 19:55:00,
2013-11-20 12:10:00,46.2,44.0,29.79,West,269,0.0,-999.0,92,-99.99,,,0.08,weatherlink.com 1.10,2013-11-20 20:10:00,
2013-11-20 12:25:00,45.7,43.0,29.79,North,355,0.0,-999.0,90,-99.99,,,0.09,weatherlink.com 1.10,2013-11-20 20:25:00,
2013-11-20 12:40:00,45.4,43.0,29.78,North,355,0.0,-999.0,92,-99.99,,,0.09,weatherlink.com 1.10,2013-11-20 20:40:00,
2013-11-20 12:55:00,45.4,43.0,29.78,North,355,0.0,-999.0,91,-99.99,,,0.09,weatherlink.com 1.10,2013-11-20 20:55:00,
2013-11-20 13:10:00,45.5,44.0,29.79,North,355,0.0,-999.0,93,-99.99,,,0.09,weatherlink.com 1.10,2013-11-20 21:10:00,
2013-11-20 13:25:00,45.4,43.0,29.77,North,355,0.0,-999.0,91,-99.99,,,0.09,weatherlink.com 1.10,2013-11-20 21:25:00,
2013-11-20 13:40:00,45.5,44.0,29.77,North,355,0.0,-999.0,93,-99.99,,,0.09,weatherlink.com 1.10,2013-11-20 21:40:00,
2013-11-20 13:55:00,45.3,43.0,29.77,North,355,1.0,-999.0,93,-99.99,,,0.09,weatherlink.com 1.10,2013-11-20 21:55:00,
2013-11-20 14:10:00,45.4,44.0,29.77,North,355,0.0,-999.0,93,-99.99,,,0.09,weatherlink.com 1.10,2013-11-20 22:10:00,
2013-11-20 14:25:00,45.3,43.0,29.76,North,355,0.0,-999.0,92,-99.99,,,0.09,weatherlink.com 1.10,2013-11-20 22:25:00,
2013-11-20 14:40:00,45.2,43.0,29.77,North,355,0.0,-999.0,91,-99.99,,,0.09,weatherlink.com 1.10,2013-11-20 22:40:00,
2013-11-20 14:55:00,45.2,43.0,29.77,NW,326,0.0,-999.0,92,-99.99,,,0.09,weatherlink.com 1.10,2013-11-20 22:55:00,
2013-11-20 15:10:00,45.0,43.0,29.77,NW,326,0.0,-999.0,92,-99.99,,,0.09,weatherlink.com 1.10,2013-11-20 23:10:00,
2013-11-20 15:25:00,44.8,43.0,29.77,NNW,336,0.0,-999.0,92,-99.99,,,0.09,weatherlink.com 1.10,2013-11-20 23:25:00,
2013-11-20 15:40:00,44.6,43.0,29.78,NNW,336,0.0,-999.0,92,-99.99,,,0.09,weatherlink.com 1.10,2013-11-20 23:40:00,
2013-11-20 15:55:00,44.4,42.0,29.78,NW,321,0.0,-999.0,92,-99.99,,,0.09,weatherlink.com 1.10,2013-11-20 23:55:00,
2013-11-20 16:10:00,44.2,42.0,29.78,NW,323,0.0,-999.0,91,-99.99,,,0.10,weatherlink.com 1.10,2013-11-21 00:10:00,
2013-11-20 16:25:00,44.0,42.0,29.78,NW,323,0.0,-999.0,93,-99.99,,,0.10,weatherlink.com 1.10,2013-11-21 00:25:00,
2013-11-20 16:40:00,43.1,39.0,29.79,NW,304,1.0,-999.0,86,-99.99,,,0.10,weatherlink.com 1.10,2013-11-21 00:40:00,
2013-11-20 16:55:00,42.2,39.0,29.79,NW,304,0.0,-999.0,88,-99.99,,,0.10,weatherlink.com 1.10,2013-11-21 00:55:00,
2013-11-20 17:10:00,41.3,39.0,29.79,NW,304,0.0,-999.0,92,-99.99,,,0.11,weatherlink.com 1.10,2013-11-21 01:10:00,
2013-11-20 17:25:00,40.7,39.0,29.80,NW,304,0.0,-999.0,93,-99.99,,,0.11,weatherlink.com 1.10,2013-11-21 01:25:00,
2013-11-20 17:40:00,40.4,39.0,29.81,NW,304,0.0,-999.0,94,-99.99,,,0.11,weatherlink.com 1.10,2013-11-21 01:40:00,
2013-11-20 17:55:00,40.3,39.0,29.81,NW,304,0.0,-999.0,94,-99.99,,,0.12,weatherlink.com 1.10,2013-11-21 01:55:00,
2013-11-20 18:10:00,40.2,39.0,29.81,NW,304,0.0,-999.0,95,-99.99,,,0.13,weatherlink.com 1.10,2013-11-21 02:10:00,
2013-11-20 18:25:00,40.0,39.0,29.82,NW,304,0.0,-999.0,95,-99.99,,,0.14,weatherlink.com 1.10,2013-11-21 02:25:00,
2013-11-20 18:40:00,40.0,39.0,29.82,NW,304,0.0,-999.0,96,-99.99,,,0.15,weatherlink.com 1.10,2013-11-21 02:40:00,
2013-11-20 18:55:00,40.0,39.0,29.82,NW,304,0.0,-999.0,96,-99.99,,,0.17,weatherlink.com 1.10,2013-11-21 02:55:00,
2013-11-20 19:10:00,39.5,38.0,29.82,NW,304,0.0,-999.0,95,-99.99,,,0.18,weatherlink.com 1.10,2013-11-21 03:10:00,
2013-11-20 19:25:00,39.6,38.0,29.83,NW,304,0.0,-999.0,95,-99.99,,,0.19,weatherlink.com 1.10,2013-11-21 03:25:00,
2013-11-20 19:40:00,39.7,39.0,29.83,NW,304,0.0,-999.0,96,-99.99,,,0.21,weatherlink.com 1.10,2013-11-21 03:40:00,
2013-11-20 19:55:00,39.7,39.0,29.83,NW,304,0.0,-999.0,96,-99.99,,,0.21,weatherlink.com 1.10,2013-11-21 03:55:00,
2013-11-20 20:10:00,39.5,38.0,29.84,NW,304,0.0,-999.0,95,-99.99,,,0.23,weatherlink.com 1.10,2013-11-21 04:10:00,
2013-11-20 20:25:00,39.3,38.0,29.84,NW,304,0.0,-999.0,96,-99.99,,,0.24,weatherlink.com 1.10,2013-11-21 04:25:00,
2013-11-20 20:40:00,39.0,38.0,29.84,NW,304,0.0,-999.0,95,-99.99,,,0.25,weatherlink.com 1.10,2013-11-21 04:40:00,
2013-11-20 20:55:00,38.8,38.0,29.85,NW,304,0.0,-999.0,95,-99.99,,,0.26,weatherlink.com 1.10,2013-11-21 04:55:00,
2013-11-20 21:10:00,38.3,37.0,29.85,NW,304,0.0,-999.0,95,-99.99,,,0.27,weatherlink.com 1.10,2013-11-21 05:10:00,
2013-11-20 21:25:00,37.9,37.0,29.86,NW,304,0.0,-999.0,95,-99.99,,,0.28,weatherlink.com 1.10,2013-11-21 05:25:00,
2013-11-20 21:40:00,37.7,36.0,29.86,NW,304,0.0,-999.0,95,-99.99,,,0.29,weatherlink.com 1.10,2013-11-21 05:40:00,
2013-11-20 21:55:00,37.3,36.0,29.86,NW,304,0.0,-999.0,95,-99.99,,,0.29,weatherlink.com 1.10,2013-11-21 05:55:00,
2013-11-20 22:10:00,37.0,36.0,29.87,NW,304,0.0,-999.0,95,-99.99,,,0.30,weatherlink.com 1.10,2013-11-21 06:10:00,
2013-11-20 22:25:00,36.7,35.0,29.87,NW,304,0.0,-999.0,95,-99.99,,,0.31,weatherlink.com 1.10,2013-11-21 06:25:00,
2013-11-20 22:40:00,36.2,35.0,29.88,NW,304,0.0,-999.0,95,-99.99,,,0.31,weatherlink.com 1.10,2013-11-21 06:40:00,
2013-11-20 22:55:00,36.1,35.0,29.88,NW,304,0.0,-999.0,95,-99.99,,,0.32,weatherlink.com 1.10,2013-11-21 06:55:00,
2013-11-20 23:10:00,35.9,35.0,29.89,NW,304,0.0,-999.0,95,-99.99,,,0.33,weatherlink.com 1.10,2013-11-21 07:10:00,
2013-11-20 23:25:00,35.5,34.0,29.89,NW,304,0.0,-999.0,95,-99.99,,,0.33,weatherlink.com 1.10,2013-11-21 07:25:00,
2013-11-20 23:40:00,35.3,34.0,29.89,NW,304,0.0,-999.0,95,-99.99,,,0.34,weatherlink.com 1.10,2013-11-21 07:40:00,
2013-11-20 23:55:00,35.1,34.0,29.89,NW,304,0.0,-999.0,95,-99.99,,,0.35,weatherlink.com 1.10,2013-11-21 07:55:00,